MSR743 LCLK-HECA

Flight info

Callsign MSR743
Flight time 1h 9m
Altitude 38000
Route EMEDA DCT STEPA/N0456F390 N71 LAKTO N307 MELDO A16 CVO
Aircraft A20N/M-SDE2E3FGHIRWXY/LB1

Departure

Time 2026-05-05 12:43
Airport Larnaca International Airport (LCLK)

Arrival

Time 2026-05-05 13:52
Airport Cairo International Airport (HECA)
Time Latitude Longitude Altitude Speed Heading
2026-05-05 12:23 34.86881 33.60960 18 ft 0 kts 45°
2026-05-05 12:31 34.86872 33.60949 20 ft 3 kts 45°
2026-05-05 12:31 34.86856 33.60930 20 ft 3 kts 45°
2026-05-05 12:31 34.86840 33.60911 21 ft 3 kts 45°
2026-05-05 12:31 34.86825 33.60891 21 ft 3 kts 54°
2026-05-05 12:32 34.86816 33.60867 22 ft 3 kts 101°
2026-05-05 12:32 34.86817 33.60861 22 ft 0 kts 114°
2026-05-05 12:33 34.86813 33.60871 21 ft 3 kts 122°
2026-05-05 12:34 34.86786 33.60902 19 ft 7 kts 138°
2026-05-05 12:34 34.86742 33.60954 19 ft 11 kts 135°
2026-05-05 12:34 34.86697 33.61018 20 ft 9 kts 112°
2026-05-05 12:34 34.86724 33.61098 19 ft 13 kts 47°
2026-05-05 12:35 34.86797 33.61184 18 ft 16 kts 44°
2026-05-05 12:35 34.86816 33.61209 18 ft 3 kts 46°
2026-05-05 12:35 34.86840 33.61239 18 ft 7 kts 46°
2026-05-05 12:35 34.86887 33.61296 18 ft 12 kts 44°
2026-05-05 12:36 34.86951 33.61374 18 ft 13 kts 45°
2026-05-05 12:36 34.87027 33.61466 18 ft 16 kts 45°
2026-05-05 12:36 34.87092 33.61547 18 ft 15 kts 45°
2026-05-05 12:36 34.87172 33.61644 18 ft 18 kts 44°
2026-05-05 12:37 34.87269 33.61761 18 ft 21 kts 45°
2026-05-05 12:37 34.87371 33.61887 17 ft 20 kts 45°
2026-05-05 12:37 34.87447 33.61980 17 ft 17 kts 45°
2026-05-05 12:37 34.87507 33.62054 17 ft 11 kts 51°
2026-05-05 12:38 34.87505 33.62144 17 ft 10 kts 96°
2026-05-05 12:38 34.87538 33.62233 17 ft 14 kts 46°
2026-05-05 12:38 34.87615 33.62325 17 ft 17 kts 44°
2026-05-05 12:38 34.87708 33.62438 17 ft 20 kts 45°
2026-05-05 12:39 34.87810 33.62563 17 ft 18 kts 45°
2026-05-05 12:39 34.87905 33.62680 17 ft 20 kts 45°
2026-05-05 12:39 34.88011 33.62809 16 ft 19 kts 44°
2026-05-05 12:39 34.88093 33.62908 16 ft 15 kts 45°
2026-05-05 12:40 34.88175 33.63007 16 ft 18 kts 44°
2026-05-05 12:40 34.88274 33.63126 16 ft 22 kts 45°
2026-05-05 12:40 34.88381 33.63259 16 ft 11 kts 45°
2026-05-05 12:40 34.88429 33.63320 15 ft 12 kts 50°
2026-05-05 12:41 34.88418 33.63416 16 ft 14 kts 134°
2026-05-05 12:41 34.88401 33.63436 16 ft 0 kts 134°
2026-05-05 12:41 34.88396 33.63442 16 ft 4 kts 134°
2026-05-05 12:42 34.88360 33.63487 17 ft 10 kts 134°
2026-05-05 12:42 34.88291 33.63504 15 ft 12 kts 214°
2026-05-05 12:42 34.88221 33.63420 15 ft 17 kts 225°
2026-05-05 12:42 34.87944 33.63086 18 ft 101 kts 225°
2026-05-05 12:43 34.87259 33.62262 27 ft 172 kts 224°
2026-05-05 12:43 34.86315 33.61091 386 ft 205 kts 225°
2026-05-05 12:43 34.85238 33.59758 998 ft 238 kts 224°
2026-05-05 12:43 34.84032 33.58358 1705 ft 233 kts 223°
2026-05-05 12:44 34.82812 33.57100 2457 ft 231 kts 219°
2026-05-05 12:44 34.81471 33.55902 3328 ft 245 kts 216°
2026-05-05 12:44 34.79961 33.54859 4350 ft 253 kts 202°
2026-05-05 12:44 34.78220 33.54502 5474 ft 257 kts 180°
2026-05-05 12:45 34.76469 33.54967 6572 ft 264 kts 159°
2026-05-05 12:45 34.74874 33.56210 7297 ft 283 kts 136°
2026-05-05 12:45 34.73739 33.58212 8132 ft 293 kts 116°
2026-05-05 12:45 34.72827 33.60455 9103 ft 300 kts 118°
2026-05-05 12:46 34.71709 33.62627 10036 ft 307 kts 127°
2026-05-05 12:46 34.70324 33.64708 10586 ft 328 kts 133°
2026-05-05 12:46 34.68680 33.66783 10918 ft 353 kts 136°
2026-05-05 12:46 34.66858 33.68894 11473 ft 368 kts 137°
2026-05-05 12:47 34.64968 33.71029 12276 ft 376 kts 138°
2026-05-05 12:47 34.62975 33.73074 13051 ft 383 kts 146°
2026-05-05 12:47 34.60628 33.74731 13828 ft 389 kts 158°
2026-05-05 12:47 34.58086 33.75915 14547 ft 393 kts 164°
2026-05-05 12:48 34.55465 33.76646 15260 ft 392 kts 180°
2026-05-05 12:48 34.52775 33.76416 15992 ft 384 kts 201°
2026-05-05 12:48 34.50348 33.75197 16758 ft 372 kts 220°
2026-05-05 12:48 34.48377 33.73237 17546 ft 365 kts 231°
2026-05-05 12:49 34.46529 33.71117 18341 ft 367 kts 232°
2026-05-05 12:49 34.44675 33.68967 19021 ft 370 kts 233°
2026-05-05 12:49 34.42792 33.66798 19679 ft 374 kts 232°
2026-05-05 12:49 34.40889 33.64628 20332 ft 378 kts 232°
2026-05-05 12:50 34.38948 33.62429 20992 ft 382 kts 232°
2026-05-05 12:50 34.37018 33.60251 21623 ft 386 kts 232°
2026-05-05 12:50 34.35043 33.58026 22257 ft 390 kts 232°
2026-05-05 12:50 34.33049 33.55781 22884 ft 394 kts 232°
2026-05-05 12:51 34.31021 33.53499 23511 ft 398 kts 232°
2026-05-05 12:51 34.29015 33.51246 24058 ft 400 kts 231°
2026-05-05 12:51 34.26945 33.48922 24658 ft 401 kts 231°
2026-05-05 12:51 34.24919 33.46649 25214 ft 403 kts 231°
2026-05-05 12:52 34.22834 33.44311 25745 ft 405 kts 231°
2026-05-05 12:52 34.20785 33.42014 26255 ft 408 kts 230°
2026-05-05 12:52 34.18694 33.39672 26768 ft 410 kts 230°
2026-05-05 12:52 34.16596 33.37322 27255 ft 412 kts 230°
2026-05-05 12:53 34.14485 33.34960 27748 ft 415 kts 230°
2026-05-05 12:53 34.12365 33.32590 28193 ft 417 kts 230°
2026-05-05 12:53 34.10232 33.30207 28630 ft 420 kts 230°
2026-05-05 12:53 34.08082 33.27807 29046 ft 422 kts 230°
2026-05-05 12:54 34.03731 33.22955 29852 ft 428 kts 229°
2026-05-05 12:54 34.01538 33.20512 30223 ft 430 kts 229°
2026-05-05 12:54 33.99336 33.18061 30590 ft 432 kts 229°
2026-05-05 12:55 33.97124 33.15601 30939 ft 434 kts 229°
2026-05-05 12:55 33.94898 33.13128 31357 ft 434 kts 229°
2026-05-05 12:55 33.92705 33.10695 31848 ft 433 kts 229°
2026-05-05 12:55 33.90468 33.08215 32367 ft 430 kts 229°
2026-05-05 12:56 33.88270 33.05780 32873 ft 428 kts 229°
2026-05-05 12:56 33.86115 33.03393 33361 ft 426 kts 229°
2026-05-05 12:56 33.83917 33.00960 33867 ft 423 kts 229°
2026-05-05 12:56 33.81756 32.98569 34284 ft 421 kts 229°
2026-05-05 12:57 33.79603 32.96188 34626 ft 420 kts 229°
2026-05-05 12:57 33.77481 32.93842 34939 ft 420 kts 229°
2026-05-05 12:57 33.75304 32.91437 35265 ft 419 kts 229°
2026-05-05 12:57 33.73156 32.89067 35584 ft 419 kts 229°
2026-05-05 12:58 33.71011 32.86703 35882 ft 418 kts 229°
2026-05-05 12:58 33.68865 32.84339 36183 ft 418 kts 229°
2026-05-05 12:58 33.66749 32.82009 36468 ft 417 kts 228°
2026-05-05 12:58 33.64613 32.79659 36747 ft 417 kts 228°
2026-05-05 12:59 33.62480 32.77314 37031 ft 416 kts 228°
2026-05-05 12:59 33.60341 32.74964 37302 ft 416 kts 228°
2026-05-05 12:59 33.58207 32.72622 37557 ft 415 kts 228°
2026-05-05 13:00 33.54269 32.68303 37995 ft 415 kts 228°
2026-05-05 13:00 33.53495 32.67455 38001 ft 415 kts 228°
2026-05-05 13:01 33.44983 32.58141 38005 ft 413 kts 228°
2026-05-05 13:01 33.40714 32.53480 38009 ft 412 kts 228°
2026-05-05 13:02 33.36451 32.48832 38011 ft 412 kts 229°
2026-05-05 13:02 33.32218 32.44222 38008 ft 411 kts 229°
2026-05-05 13:03 33.28040 32.39679 38012 ft 410 kts 229°
2026-05-05 13:03 33.23815 32.35092 38014 ft 409 kts 229°
2026-05-05 13:04 33.19595 32.30517 38017 ft 409 kts 229°
2026-05-05 13:04 33.15399 32.25973 38013 ft 409 kts 229°
2026-05-05 13:05 33.11175 32.21405 38012 ft 408 kts 229°
2026-05-05 13:05 33.06967 32.16861 38015 ft 408 kts 229°
2026-05-05 13:06 33.02752 32.12315 38017 ft 408 kts 229°
2026-05-05 13:06 32.98549 32.07788 38021 ft 407 kts 229°
2026-05-05 13:07 32.94311 32.03230 38024 ft 407 kts 229°
2026-05-05 13:07 32.90106 31.98712 38025 ft 407 kts 229°
2026-05-05 13:08 32.85892 31.94192 38028 ft 407 kts 229°
2026-05-05 13:08 32.81709 31.89709 38028 ft 408 kts 229°
2026-05-05 13:09 32.77468 31.85173 38031 ft 408 kts 229°
2026-05-05 13:09 32.73241 31.80656 38039 ft 408 kts 229°
2026-05-05 13:10 32.69025 31.76157 38043 ft 408 kts 229°
2026-05-05 13:10 32.64793 31.71646 38047 ft 408 kts 229°
2026-05-05 13:11 32.60913 31.67516 38049 ft 408 kts 229°
2026-05-05 13:11 32.57389 31.63770 38055 ft 408 kts 229°
2026-05-05 13:12 32.53158 31.59278 38058 ft 408 kts 229°
2026-05-05 13:12 32.48923 31.54787 38058 ft 408 kts 229°
2026-05-05 13:13 32.44694 31.50308 38055 ft 408 kts 229°
2026-05-05 13:13 32.40460 31.45831 38055 ft 408 kts 229°
2026-05-05 13:14 32.36222 31.41355 38059 ft 408 kts 229°
2026-05-05 13:14 32.31986 31.36886 38062 ft 407 kts 229°
2026-05-05 13:15 32.27829 31.32507 38063 ft 407 kts 229°
2026-05-05 13:15 32.23597 31.28054 38068 ft 407 kts 229°
2026-05-05 13:16 32.19359 31.23601 38047 ft 407 kts 229°
2026-05-05 13:16 32.15125 31.19157 38069 ft 407 kts 229°
2026-05-05 13:17 32.10898 31.14726 38068 ft 407 kts 229°
2026-05-05 13:17 32.06379 31.10700 38068 ft 418 kts 217°
2026-05-05 13:18 32.00849 31.08192 37771 ft 436 kts 201°
2026-05-05 13:18 31.97816 31.07680 37500 ft 447 kts 192°
2026-05-05 13:18 31.94666 31.07741 37235 ft 459 kts 183°
2026-05-05 13:19 31.91483 31.08105 36968 ft 460 kts 183°
2026-05-05 13:19 31.88284 31.08459 36712 ft 461 kts 183°
2026-05-05 13:19 31.85093 31.08805 36450 ft 461 kts 184°
2026-05-05 13:19 31.81897 31.09149 36196 ft 462 kts 184°
2026-05-05 13:20 31.78698 31.09492 35943 ft 462 kts 184°
2026-05-05 13:20 31.75493 31.09835 35692 ft 463 kts 184°
2026-05-05 13:20 31.72277 31.10179 35443 ft 463 kts 184°
2026-05-05 13:20 31.69060 31.10524 35198 ft 464 kts 184°
2026-05-05 13:21 31.65857 31.10867 34956 ft 464 kts 184°
2026-05-05 13:21 31.62637 31.11212 34713 ft 465 kts 184°
2026-05-05 13:21 31.59410 31.11557 34470 ft 465 kts 184°
2026-05-05 13:21 31.56186 31.11901 34236 ft 466 kts 184°
2026-05-05 13:22 31.52949 31.12258 33981 ft 466 kts 182°
2026-05-05 13:22 31.49733 31.12829 33431 ft 468 kts 179°
2026-05-05 13:22 31.46520 31.13439 32642 ft 470 kts 179°
2026-05-05 13:22 31.43285 31.14050 31751 ft 473 kts 179°
2026-05-05 13:23 31.40022 31.14663 30831 ft 476 kts 179°
2026-05-05 13:23 31.36734 31.15280 29978 ft 478 kts 179°
2026-05-05 13:23 31.33463 31.15896 29302 ft 473 kts 179°
2026-05-05 13:23 31.30227 31.16506 28657 ft 468 kts 179°
2026-05-05 13:24 31.27037 31.17106 28064 ft 462 kts 179°
2026-05-05 13:24 31.23879 31.17698 27685 ft 455 kts 179°
2026-05-05 13:24 31.20763 31.18278 27127 ft 455 kts 179°
2026-05-05 13:24 31.17633 31.18855 26437 ft 454 kts 179°
2026-05-05 13:25 31.14547 31.19426 25710 ft 453 kts 178°
2026-05-05 13:25 31.11398 31.20010 25053 ft 450 kts 178°
2026-05-05 13:25 31.08309 31.20583 24358 ft 449 kts 178°
2026-05-05 13:25 31.05258 31.21148 23680 ft 447 kts 178°
2026-05-05 13:26 31.02191 31.21717 22875 ft 445 kts 177°
2026-05-05 13:26 30.99151 31.22283 22251 ft 439 kts 177°
2026-05-05 13:26 30.96141 31.22842 21573 ft 435 kts 177°
2026-05-05 13:26 30.93155 31.23395 20887 ft 432 kts 177°
2026-05-05 13:27 30.90192 31.23942 20182 ft 430 kts 177°
2026-05-05 13:27 30.87250 31.24486 19490 ft 427 kts 176°
2026-05-05 13:27 30.84326 31.25026 18828 ft 424 kts 176°
2026-05-05 13:27 30.81403 31.25565 18120 ft 423 kts 176°
2026-05-05 13:28 30.78509 31.26099 17445 ft 418 kts 176°
2026-05-05 13:28 30.75646 31.26628 16780 ft 414 kts 176°
2026-05-05 13:28 30.72825 31.27148 16127 ft 410 kts 175°
2026-05-05 13:28 30.70015 31.27666 15471 ft 406 kts 175°
2026-05-05 13:29 30.67247 31.28176 14939 ft 399 kts 175°
2026-05-05 13:29 30.64522 31.28678 14373 ft 394 kts 174°
2026-05-05 13:29 30.61862 31.29166 13813 ft 389 kts 174°
2026-05-05 13:29 30.59158 31.29663 13089 ft 387 kts 174°
2026-05-05 13:30 30.56502 31.30138 12374 ft 385 kts 178°
2026-05-05 13:30 30.53889 31.29905 11913 ft 369 kts 199°
2026-05-05 13:30 30.51681 31.28696 11721 ft 345 kts 220°
2026-05-05 13:30 30.50051 31.26752 11240 ft 334 kts 239°
2026-05-05 13:31 30.48563 31.24634 10666 ft 338 kts 224°
2026-05-05 13:31 30.46606 31.23130 10316 ft 334 kts 214°
2026-05-05 13:31 30.44650 31.21778 10203 ft 321 kts 215°
2026-05-05 13:31 30.42771 31.20486 10079 ft 308 kts 215°
2026-05-05 13:32 30.40960 31.19250 9893 ft 296 kts 214°
2026-05-05 13:32 30.39200 31.18046 9529 ft 292 kts 214°
2026-05-05 13:32 30.38051 31.17254 9390 ft 286 kts 214°
2026-05-05 13:32 30.36380 31.16105 9276 ft 273 kts 214°
2026-05-05 13:33 30.34784 31.15014 9100 ft 260 kts 214°
2026-05-05 13:33 30.33240 31.13959 8729 ft 256 kts 214°
2026-05-05 13:33 30.31660 31.13036 8295 ft 260 kts 198°
2026-05-05 13:33 30.29850 31.12937 7905 ft 263 kts 175°
2026-05-05 13:34 30.28063 31.13206 7736 ft 252 kts 175°
2026-05-05 13:34 30.26351 31.13473 7498 ft 246 kts 175°
2026-05-05 13:34 30.24656 31.13743 7153 ft 245 kts 174°
2026-05-05 13:34 30.22977 31.14009 6831 ft 243 kts 174°
2026-05-05 13:35 30.21301 31.14268 6623 ft 238 kts 175°
2026-05-05 13:35 30.19728 31.14517 6473 ft 221 kts 174°
2026-05-05 13:35 30.18213 31.14758 6092 ft 218 kts 175°
2026-05-05 13:35 30.16705 31.14997 5620 ft 219 kts 174°
2026-05-05 13:36 30.15189 31.15238 5167 ft 220 kts 174°
2026-05-05 13:36 30.13682 31.15476 4842 ft 216 kts 175°
2026-05-05 13:36 30.12195 31.15727 4403 ft 215 kts 174°
2026-05-05 13:36 30.10711 31.15974 3955 ft 214 kts 175°
2026-05-05 13:37 30.09237 31.16224 3520 ft 214 kts 174°
2026-05-05 13:37 30.07766 31.16462 3147 ft 214 kts 174°
2026-05-05 13:37 30.06302 31.16703 2787 ft 212 kts 174°
2026-05-05 13:37 30.04856 31.16939 2567 ft 205 kts 173°
2026-05-05 13:38 30.03537 31.17565 2512 ft 211 kts 146°
2026-05-05 13:38 30.02472 31.18747 2486 ft 213 kts 125°
2026-05-05 13:38 30.01953 31.20301 2510 ft 209 kts 92°
2026-05-05 13:38 30.01961 31.22000 2486 ft 212 kts 85°
2026-05-05 13:39 30.02014 31.23709 2505 ft 208 kts 84°
2026-05-05 13:39 30.02061 31.25318 2493 ft 192 kts 84°
2026-05-05 13:39 30.02107 31.26785 2501 ft 176 kts 84°
2026-05-05 13:39 30.02146 31.28137 2498 ft 161 kts 85°
2026-05-05 13:40 30.02067 31.29373 2486 ft 156 kts 109°
2026-05-05 13:40 30.01635 31.30492 3172 ft 143 kts 121°
2026-05-05 13:40 30.01103 31.31342 3720 ft 141 kts 134°
2026-05-05 13:40 30.00327 31.32143 4445 ft 142 kts 147°
2026-05-05 13:41 29.99531 31.32671 5380 ft 128 kts 160°
2026-05-05 13:41 29.98644 31.32990 5983 ft 141 kts 173°
2026-05-05 13:41 29.97612 31.33143 6584 ft 158 kts 162°
2026-05-05 13:41 29.96653 31.34100 6620 ft 215 kts 118°
2026-05-05 13:42 29.96305 31.35741 6458 ft 225 kts 82°
2026-05-05 13:42 29.96874 31.37500 6389 ft 245 kts 49°
2026-05-05 13:42 29.98178 31.38731 6383 ft 243 kts 26°
2026-05-05 13:42 29.99452 31.39977 6316 ft 241 kts 53°
2026-05-05 13:43 30.00012 31.41756 6221 ft 236 kts 84°
2026-05-05 13:43 29.99701 31.43564 6112 ft 228 kts 118°
2026-05-05 13:43 29.98644 31.44840 6016 ft 216 kts 154°
2026-05-05 13:43 29.97290 31.45166 5997 ft 197 kts 193°
2026-05-05 13:44 29.96040 31.44472 6035 ft 207 kts 230°
2026-05-05 13:44 29.95240 31.43127 6082 ft 200 kts 244°
2026-05-05 13:44 29.94559 31.41736 5727 ft 199 kts 245°
2026-05-05 13:44 29.93879 31.40339 5286 ft 201 kts 245°
2026-05-05 13:45 29.93202 31.38938 4858 ft 199 kts 245°
2026-05-05 13:45 29.92531 31.37557 4433 ft 196 kts 245°
2026-05-05 13:45 29.91863 31.36191 3971 ft 197 kts 245°
2026-05-05 13:45 29.91267 31.34784 3529 ft 191 kts 260°
2026-05-05 13:46 29.91415 31.33340 3249 ft 177 kts 300°
2026-05-05 13:46 29.92035 31.32193 3158 ft 162 kts 304°
2026-05-05 13:46 29.92623 31.31153 3028 ft 148 kts 304°
2026-05-05 13:46 29.93177 31.30180 2787 ft 143 kts 304°
2026-05-05 13:47 29.93725 31.29269 2696 ft 137 kts 312°
2026-05-05 13:47 29.94603 31.28855 2727 ft 153 kts
2026-05-05 13:47 29.95634 31.29170 2695 ft 149 kts 15°
2026-05-05 13:47 29.96613 31.29569 2681 ft 150 kts 15°
2026-05-05 13:48 29.97615 31.29977 2690 ft 153 kts 14°
2026-05-05 13:48 29.98615 31.30387 2706 ft 154 kts 15°
2026-05-05 13:48 29.99632 31.30786 2706 ft 155 kts 14°
2026-05-05 13:48 30.00645 31.31216 2722 ft 157 kts 15°
2026-05-05 13:49 30.01636 31.31713 2703 ft 147 kts 25°
2026-05-05 13:49 30.02419 31.32358 2582 ft 134 kts 35°
2026-05-05 13:49 30.03113 31.33119 2421 ft 138 kts 41°
2026-05-05 13:49 30.03750 31.33925 2264 ft 134 kts 44°
2026-05-05 13:50 30.04359 31.34729 2083 ft 133 kts 44°
2026-05-05 13:50 30.04974 31.35552 1903 ft 136 kts 43°
2026-05-05 13:50 30.05589 31.36377 1728 ft 135 kts 45°
2026-05-05 13:50 30.06192 31.37185 1536 ft 133 kts 44°
2026-05-05 13:51 30.06807 31.38005 1369 ft 137 kts 43°
2026-05-05 13:51 30.07414 31.38823 1184 ft 133 kts 44°
2026-05-05 13:51 30.08022 31.39636 1008 ft 134 kts 42°
2026-05-05 13:51 30.08633 31.40455 829 ft 132 kts 46°
2026-05-05 13:52 30.09224 31.41248 646 ft 131 kts 40°
2026-05-05 13:52 30.09835 31.42063 472 ft 135 kts 44°
2026-05-05 13:52 30.10437 31.42863 374 ft 115 kts 50°
2026-05-05 13:52 30.10762 31.43292 374 ft 28 kts 48°
2026-05-05 13:53 30.10903 31.43455 374 ft 28 kts 37°
2026-05-05 13:53 30.11078 31.43562 374 ft 11 kts 24°
2026-05-05 13:53 30.11094 31.43571 374 ft 4 kts 24°
2026-05-05 13:53 30.11120 31.43584 374 ft 3 kts 24°
2026-05-05 13:54 30.11153 31.43601 374 ft 7 kts 24°
2026-05-05 13:54 30.11204 31.43588 374 ft 9 kts 332°
2026-05-05 13:54 30.11253 31.43530 374 ft 11 kts 284°
2026-05-05 13:54 30.11246 31.43435 374 ft 13 kts 288°
2026-05-05 13:55 30.11313 31.43356 374 ft 15 kts 319°
2026-05-05 13:55 30.11399 31.43270 374 ft 17 kts 320°
2026-05-05 13:55 30.11492 31.43179 374 ft 18 kts 319°
2026-05-05 13:55 30.11588 31.43085 374 ft 19 kts 319°
2026-05-05 13:56 30.11694 31.42979 374 ft 21 kts 319°
2026-05-05 13:56 30.11790 31.42883 374 ft 17 kts 320°
2026-05-05 13:56 30.11884 31.42790 374 ft 19 kts 319°
2026-05-05 13:56 30.11966 31.42710 374 ft 9 kts 319°
2026-05-05 13:57 30.12023 31.42652 374 ft 12 kts 319°
2026-05-05 13:57 30.12095 31.42580 374 ft 15 kts 319°
2026-05-05 13:57 30.12146 31.42529 374 ft 1 kts 319°
2026-05-05 13:57 30.12160 31.42515 374 ft 4 kts 319°
2026-05-05 13:58 30.12189 31.42482 374 ft 7 kts 298°
2026-05-05 13:58 30.12197 31.42417 374 ft 10 kts 259°
2026-05-05 13:58 30.12154 31.42341 374 ft 13 kts 230°
2026-05-05 13:58 30.12091 31.42252 374 ft 16 kts 229°
2026-05-05 13:59 30.11980 31.42109 374 ft 11 kts 228°
2026-05-05 13:59 30.11922 31.42030 374 ft 14 kts 230°
2026-05-05 14:00 30.11772 31.41829 374 ft 18 kts 229°
2026-05-05 14:00 30.11717 31.41755 374 ft 19 kts 230°
2026-05-05 14:00 30.11615 31.41616 374 ft 15 kts 231°
2026-05-05 14:00 30.11540 31.41516 374 ft 18 kts 227°
2026-05-05 14:01 30.11452 31.41401 374 ft 20 kts 228°
2026-05-05 14:01 30.11355 31.41270 374 ft 23 kts 229°
2026-05-05 14:01 30.11249 31.41130 374 ft 22 kts 229°
2026-05-05 14:01 30.11155 31.41004 374 ft 20 kts 229°
2026-05-05 14:02 30.11075 31.40897 374 ft 18 kts 228°
2026-05-05 14:02 30.10984 31.40780 374 ft 21 kts 228°
2026-05-05 14:02 30.10887 31.40651 374 ft 17 kts 229°
2026-05-05 14:02 30.10807 31.40545 374 ft 19 kts 228°
2026-05-05 14:03 30.10717 31.40424 374 ft 18 kts 229°
2026-05-05 14:03 30.10689 31.40326 374 ft 12 kts 293°
2026-05-05 14:03 30.10693 31.40236 374 ft 12 kts 237°
2026-05-05 14:03 30.10631 31.40151 374 ft 15 kts 229°
2026-05-05 14:04 30.10554 31.40049 374 ft 18 kts 230°
2026-05-05 14:04 30.10488 31.39939 374 ft 17 kts 260°
2026-05-05 14:04 30.10555 31.39848 374 ft 17 kts 346°
2026-05-05 14:04 30.10678 31.39814 374 ft 19 kts 345°
2026-05-05 14:05 30.10790 31.39779 374 ft 15 kts 346°
2026-05-05 14:05 30.10845 31.39808 374 ft 4 kts 65°
2026-05-05 14:05 30.10859 31.39859 374 ft 9 kts 75°
2026-05-05 14:05 30.10861 31.39868 374 ft 0 kts 75°